ORBCOMM FM107 [+]

Last updated on Fri Dec 29 2023 00:02:54 GMT+0000 (Coordinated Universal Time)

1 40087U 14040B 23361.87122043 .00001414 00000+0 35433-3 0 9990 2 40087 47.0071 30.8719 0002333 305.4840 54.5826 14.56199991502778
UTC large
Height (km)
Speed (km/s)
/
Latitude / Longitude
Inclination (degrees)
Orbital Period (minutes)
Azimuth
Elevation
Range (km)
Doppler Factor

Next 0 passes for location: London (51.5072 / 0.1276)

Sorry there are no passes over London.